Regional Weather Roundup
Issued by NWS

Home | Current Version | Previous Version | Graphics & Text | Print | Product List | Glossary Off
Versions: 1 2 3 4 5 6 7 8 9 10 11 12 13 14 15 16 17 18 19 20 21 22 23 24 25 26 27 28 29 30 31 32 33 34 35 36 37 38 39 40 41 42 43 44 45 46 47 48 49 50

000
ASUS43 KLSX 311207
RWRMO

WEATHER SUMMARY FOR MISSOURI
NATIONAL WEATHER SERVICE SPRINGFIELD MO
700 AM CDT MON AUG 31 2015

NOTE: "FAIR" INDICATES FEW OR NO CLOUDS BELOW 12,000 FEET WITH NO
       SIGNIFICANT WEATHER AND/OR OBSTRUCTIONS TO VISIBILITY.
       CURRENT SKY AND/OR WEATHER CONDITIONS ARE NOT AVAILABLE FOR
       CHILLICOTHE AND FARMINGTON.

MOZ001>031-035>038-043-044-053-054-311300-
...NORTHERN AND WESTERN MISSOURI...

CITY           SKY/WX    TMP DP  RH WIND       PRES   REMARKS
KANSAS CTY INT CLEAR     69  67  93 S6        29.97S FOG
6HR MIN TEMP:  69; 6HR MAX TEMP:  73;

KANSAS C DTWN  CLEAR     73  69  87 CALM      29.97R
6HR MIN TEMP:  73; 6HR MAX TEMP:  77;

LEE`S SUMMIT   CLEAR     72  69  90 S6        29.99R FOG
6HR MIN TEMP:  72; 6HR MAX TEMP:  75;

ST JOSEPH      FOG       63  62  97 CALM      29.97R VSB 1/2
6HR MIN TEMP:  63; 6HR MAX TEMP:  68;

CHILLICOTHE      N/A     71  69  93 SE3       30.00R
6HR MIN TEMP:  70; 6HR MAX TEMP:  74;

KIRKSVILLE     FOG       68  66  93 E3        30.03R VSB 1
6HR MIN TEMP:  66; 6HR MAX TEMP:  69;


$$
MOZ066>068-077>081-088>096-101>105-311300-
...SOUTHWEST MISSOURI...

CITY           SKY/WX    TMP DP  RH WIND       PRES   REMARKS
SPRINGFIELD    MOCLDY    71  67  87 SE10      30.04R
6HR MIN TEMP:  71; 6HR MAX TEMP:  75;

JOPLIN         CLEAR     70  67  90 S7        30.01R
6HR MIN TEMP:  70; 6HR MAX TEMP:  75;


$$
MOZ032>034-039>042-045>050-055>058-069>072-311300-
...CENTRAL MISSOURI...

CITY           SKY/WX    TMP DP  RH WIND       PRES   REMARKS
COLUMBIA       PTCLDY    71  69  93 SE7       30.03R FOG
6HR MIN TEMP:  70; 6HR MAX TEMP:  73;

JEFFERSON CITY PTCLDY    70  68  93 SE5       30.02R FOG
6HR MIN TEMP:  69; 6HR MAX TEMP:  73;

ROLLA          PTCLDY    71  66  84 S8        30.05R
6HR MIN TEMP:  70; 6HR MAX TEMP:  73;

SEDALIA        CLEAR     71  67  87 S8        30.01R FOG
6HR MIN TEMP:  70; 6HR MAX TEMP:  73;

WHITEMAN AFB   CLEAR     70  70  99 S6        29.99R
WARRENSBURG    CLEAR     70  68  94 SE5       29.99R
OSAGE BEACH    CLEAR     70  66  88 SE6       30.04R

$$
MOZ051-052-059>065-311300-
...EAST CENTRAL MISSOURI...

CITY           SKY/WX    TMP DP  RH WIND       PRES   REMARKS
ST LOUIS INTL  MOCLDY    76  69  79 CALM      30.06R
6HR MIN TEMP:  75; 6HR MAX TEMP:  79;

SPIRIT OF STL  CLOUDY    71  70  96 CALM      30.04R FOG
6HR MIN TEMP:  70; 6HR MAX TEMP:  73;

ST CHARLES     MOCLDY    70  70 100 CALM      30.04R FOG
6HR MIN TEMP:  69; 6HR MAX TEMP:  73;


$$
MOZ072>076-082>087-097>100-106>115-311300-
...SOUTH CENTRAL AND SOUTHEAST MISSOURI...

CITY           SKY/WX    TMP DP  RH WIND       PRES   REMARKS
CAPE GIRARDEAU PTCLDY    68  67  96 CALM      30.09R FOG
6HR MIN TEMP:  67; 6HR MAX TEMP:  70;

FARMINGTON     PTCLDY    70  68  94 S5        30.11R
6HR MIN TEMP:  70; 6HR MAX TEMP:  72;

POPLAR BLUFF   MOCLDY    69  68  96 CALM      30.08R FOG
6HR MIN TEMP:  67; 6HR MAX TEMP:  70;

WEST PLAINS    CLOUDY    70  67  90 SE3       30.10R FOG
6HR MIN TEMP:  68; 6HR MAX TEMP:  72;


$$



USA.gov is the U.S. government's official web portal to all federal, state and local government web resources and services.